This is the latest recevied weather packets stored in our database for station/object PP5EO-15. If no packets are shown the sender has not sent any weather packets the latest 10 day(s).
| Time | Temp. | Humidity | Pressure | Rain* | Wind** | Luminosity | Snow |
|---|---|---|---|---|---|---|---|
| 1777742087 | 32.22° C | 37% | 1012.1 hPa | - | - | - | - |
| 1777741492 | 32.22° C | 34% | 1011.6 hPa | - | - | - | - |
| 1777740897 | 32.22° C | 38% | 1010.5 hPa | - | - | - | - |
| 1777740302 | 32.78° C | 40% | 1010.2 hPa | - | - | - | - |
| 1777739707 | 32.78° C | 41% | 1010.4 hPa | - | - | - | - |
| 1777739112 | 32.78° C | 39% | 1010.9 hPa | - | - | - | - |
| 1777738517 | 32.78° C | 38% | 1011.1 hPa | - | - | - | - |
| 1777737922 | 32.78° C | 38% | 1011.1 hPa | - | - | - | - |
| 1777737327 | 32.78° C | 40% | 1011.4 hPa | - | - | - | - |
| 1777736732 | 32.78° C | 39% | 1012 hPa | - | - | - | - |
| 1777736137 | 32.78° C | 38% | 1012.3 hPa | - | - | - | - |
| 1777735542 | 32.78° C | 39% | 1012.6 hPa | - | - | - | - |
| 1777734947 | 32.22° C | 41% | 1013.2 hPa | - | - | - | - |
| 1777734352 | 32.22° C | 42% | 1013.6 hPa | - | - | - | - |
| 1777733757 | 31.67° C | 43% | 1013.9 hPa | - | - | - | - |
| 1777733162 | 32.22° C | 42% | 1014.3 hPa | - | - | - | - |
| 1777732567 | 31.67° C | 45% | 1014.8 hPa | - | - | - | - |
| 1777731972 | 31.11° C | 48% | 1015.2 hPa | - | - | - | - |
| 1777731377 | 30.56° C | 51% | 1015.6 hPa | - | - | - | - |
| 1777730783 | 30° C | 51% | 1016 hPa | - | - | - | - |
| 1777730187 | 29.44° C | 51% | 1016.3 hPa | - | - | - | - |
| 1777729592 | 28.89° C | 52% | 1016.3 hPa | - | - | - | - |
| 1777728997 | 28.89° C | 53% | 1016.4 hPa | - | - | - | - |
| 1777728402 | 28.89° C | 53% | 1016.6 hPa | - | - | - | - |
| 1777727807 | 28.89° C | 54% | 1016.8 hPa | - | - | - | - |
* Rain since midnight (hover to see other rain measurements)
** Current wind speed in m/s (hover to see current wind gust speed)